Theta_e
289 291 291 292 292 291 289 290 287 290 290 292 294 295 297 299 300 300 300 300 301 301 301 301 301 300 301 301 301 301 300 300 300 301 301 301 301 301 299 300 298 298 298 299
286 288 288 286 289 292 292 291 291 290 290 295 296 297 298 299 299 298 299 299 300 300 300 300 299 299 299 299 300 300 299 299 300 300 300 300 301 301 301 299 299 298 297 298
284 287 286 283 288 290 291 293 291 288 293 296 295 297 298 299 299 298 298 299 299 299 299 299 299 299 298 299 300 299 299 298 298 299 299 299 299 299 299 300 300 298 298 298
286 287 278 292 294 294 292 292 294 293 294 297 297 299 300 300 298 297 298 299 299 300 299 299 299 299 299 299 298 298 298 297 298 298 297 298 298 298 300 301 300 298 298 298
284 284 289 290 292 291 291 291 295 294 295 298 298 298 298 300 299 298 299 300 300 300 299 298 298 298 298 297 297 297 296 296 296 297 297 297 296 296 297 298 298 298 297 297
286 283 282 292 294 297 296 287 298 298 297 297 297 291 295 298 298 298 300 300 299 299 297 297 297 298 297 296 296 295 295 295 296 296 296 296 296 296 296 295 294 295 294 296
285 284 289 295 295 297 286 291 298 299 298 298 295 297 299 299 298 299 299 299 298 296 296 296 297 297 295 296 295 296 296 296 296 296 296 295 295 295 293 292 292 293 293 294
287 285 281 298 295 290 297 300 298 298 298 298 298 298 297 296 297 298 297 297 295 295 295 296 296 295 295 295 296 296 296 295 294 295 295 294 292 292 292 292 291 291 291 291
290 290 298 299 298 300 301 298 297 298 298 298 297 296 296 296 297 298 297 295 294 294 294 295 295 295 294 295 296 295 295 294 294 294 294 292 291 290 289 290 289 289 289 289
292 295 296 298 299 300 300 298 298 298 298 298 296 296 296 297 298 297 296 293 294 293 292 292 294 295 295 295 295 294 293 292 293 293 290 291 290 290 289 289 289 289 288 287
293 294 297 297 299 299 299 299 298 298 297 296 296 296 296 297 297 297 293 293 293 292 292 292 294 294 295 295 294 292 292 292 292 291 290 289 289 289 289 292 290 288 288 288
291 297 296 296 299 300 298 297 297 297 296 296 297 296 296 297 297 295 293 293 292 292 292 293 293 293 294 294 293 291 291 291 290 289 290 289 288 289 290 289 289 288 287 287
296 298 300 298 298 300 298 299 299 297 296 296 297 297 298 297 295 290 292 292 291 291 292 293 293 292 293 293 292 291 290 290 289 288 288 288 288 288 287 291 289 289 288 288
299 297 295 296 295 297 298 298 297 297 297 297 296 298 298 296 292 291 291 292 292 292 292 292 292 291 292 292 291 291 291 286 289 289 288 289 289 288 289 287 287 288 289 288
296 297 297 298 297 296 297 297 295 295 296 296 298 297 296 293 291 291 292 292 292 292 291 291 290 290 292 290 290 291 290 290 288 289 288 288 289 288 288 288 287 287 288 288
296 297 297 295 296 296 296 295 294 295 296 297 296 296 295 293 292 291 291 292 290 290 290 290 290 290 291 289 290 291 290 286 286 288 287 286 288 287 286 286 286 287 287 286
294 293 294 294 294 295 295 296 295 296 297 297 297 297 294 292 291 291 291 291 291 290 290 290 289 290 289 289 289 289 287 289 286 289 286 286 286 286 287 285 284 285 286 286
297 297 298 297 296 297 296 297 297 296 297 298 298 296 293 291 290 291 290 290 289 288 289 290 289 287 288 288 287 287 288 289 288 288 286 285 285 285 286 286 284 283 284 285
297 297 297 297 297 298 297 297 297 298 298 298 293 289 288 287 291 290 288 285 284 285 288 288 284 285 286 285 284 286 287 287 287 286 284 283 283 284 284 285 284 283 284 284
296 297 297 297 298 299 296 298 299 298 298 292 287 286 285 285 285 285 286 285 288 289 288 286 286 285 285 285 284 286 285 284 284 283 283 282 283 283 283 283 283 282 282 283
296 296 296 297 296 296 295 296 294 292 294 287 287 286 286 286 286 285 284 287 287 287 287 284 285 285 287 286 285 286 284 283 283 282 282 281 281 281 281 281 281 282 281 281
297 297 295 295 295 295 296 297 297 294 293 287 286 286 285 286 285 285 286 288 290 284 287 288 287 283 284 280 285 283 283 282 281 281 281 280 280 279 279 280 279 280 280 280
296 296 295 294 294 295 296 296 296 294 288 286 286 287 288 291 291 289 289 290 291 286 288 288 282 279 278 282 283 282 282 281 281 281 281 280 280 279 279 278 279 279 278 278
296 297 296 295 295 295 293 295 296 296 292 292 290 288 292 291 293 295 296 288 285 283 287 286 281 276 276 284 283 282 282 281 280 280 280 279 280 279 279 278 277 278 277 277
297 297 296 295 295 295 296 297 297 296 294 294 294 292 294 296 294 295 294 289 283 284 285 277 277 276 282 282 281 280 281 280 278 279 279 278 278 277 277 277 276 276 276 275
296 296 297 297 297 297 298 298 296 296 295 295 296 297 296 296 295 295 292 287 286 284 285 281 280 280 281 280 279 279 279 279 278 278 277 277 277 276 275 275 275 275 275 275
297 294 298 298 298 300 300 298 298 297 296 298 296 297 296 295 294 292 288 288 286 284 284 282 280 280 281 280 279 278 279 278 274 276 276 276 275 275 274 274 274 274 274 273
Wind_Speed
5 6 3 8 13 14 15 10 7 2 8 1 3 2 3 2 3 4 6 7 9 10 12 13 13 13 13 14 15 15 16 16 16 16 16 18 18 15 15 16 14 15 16 15
3 4 4 7 10 13 16 15 15 13 12 7 6 4 6 4 4 6 6 8 10 12 13 13 13 13 13 14 14 15 16 16 16 17 17 17 15 16 16 15 18 18 17 17
5 5 2 8 20 20 17 17 15 16 11 8 6 7 6 4 4 6 6 9 10 11 12 12 12 13 13 14 14 14 15 16 18 18 19 18 19 19 17 16 15 17 18 18
6 8 4 1 1 16 19 15 17 12 9 6 4 2 3 5 4 4 8 9 9 10 11 12 12 12 13 14 14 15 15 16 17 17 18 19 20 19 18 17 16 15 13 16
5 10 6 10 8 8 16 16 14 15 12 8 6 3 11 6 4 4 7 6 8 9 11 11 12 13 14 14 14 15 16 17 18 19 20 20 20 19 18 18 18 16 16 18
4 5 7 6 9 7 6 9 15 15 13 10 9 7 7 6 2 5 4 6 7 9 10 10 11 12 13 13 14 15 16 17 18 19 20 20 20 19 16 16 18 15 19 18
8 6 6 7 12 11 8 3 11 12 10 10 9 7 8 4 4 1 3 6 7 8 8 9 10 12 13 13 14 14 16 17 18 19 20 20 20 18 16 17 16 16 18 16
10 8 10 17 15 9 7 10 11 8 8 7 6 2 3 5 3 3 5 6 6 7 8 9 10 10 12 13 14 15 17 18 19 19 17 16 21 18 18 16 16 16 16 15
11 7 3 20 5 10 7 10 7 7 6 7 6 5 6 5 3 3 5 6 6 8 9 9 10 10 12 13 14 15 17 18 19 20 18 19 18 17 14 15 13 13 13 14
9 11 12 17 9 13 9 8 8 6 6 7 7 6 6 6 6 3 5 5 7 8 8 9 9 11 11 13 14 15 16 17 17 18 19 16 13 12 13 13 12 13 14 14
11 5 14 12 16 12 12 9 9 8 7 7 7 9 7 7 4 3 4 4 6 7 7 9 10 10 11 12 14 14 15 15 16 15 17 15 14 12 13 14 13 13 12 12
9 15 10 13 16 17 15 14 11 10 9 8 8 8 7 6 3 2 2 3 5 6 7 8 9 10 11 12 13 14 14 13 13 12 13 12 13 13 12 14 18 17 16 12
7 4 14 7 7 15 15 16 14 10 10 10 11 8 7 6 6 4 4 2 3 5 6 8 8 9 10 11 12 13 13 13 11 11 12 13 13 13 15 12 12 15 15 16
8 9 9 12 10 10 13 12 9 10 10 9 10 9 8 7 7 6 3 1 2 4 6 6 7 8 10 12 13 13 13 6 11 11 11 12 13 13 12 13 15 13 13 17
16 15 8 12 9 14 12 11 12 12 11 11 11 10 9 8 7 5 3 2 2 5 4 6 7 7 9 11 13 13 11 10 11 10 9 11 12 12 12 12 12 13 13 16
17 17 15 13 15 15 15 15 14 13 12 12 12 11 10 7 6 6 5 3 3 3 5 5 6 8 9 10 12 10 10 10 10 9 9 10 10 11 11 12 12 12 13 15
19 18 18 16 16 15 17 16 15 14 13 14 13 12 11 9 7 7 6 4 3 4 4 5 5 7 8 9 11 8 8 9 10 9 9 9 9 10 10 10 11 12 12 13
18 19 17 16 15 14 15 15 13 15 13 14 13 11 10 10 9 7 5 3 2 4 5 3 5 7 7 8 9 8 7 9 9 9 9 10 9 9 10 11 11 11 11 13
20 19 17 17 15 15 14 13 13 13 11 11 9 8 7 6 6 6 6 4 4 5 4 2 2 6 5 6 7 7 7 9 9 8 8 10 9 9 9 10 11 11 11 11
20 19 17 17 16 15 16 14 14 13 12 9 9 9 8 8 8 7 6 7 4 1 2 2 4 4 5 5 5 5 6 7 8 7 7 8 8 9 9 12 11 11 11 11
21 19 17 16 13 10 9 12 11 11 12 11 12 12 11 9 8 7 7 6 5 6 4 3 4 3 4 4 6 4 5 6 7 7 7 8 8 9 9 10 10 11 11 11
14 15 10 10 12 14 10 13 14 13 13 11 8 8 9 9 8 8 6 5 6 8 4 4 3 3 3 6 4 4 5 6 6 6 6 8 8 9 9 9 9 10 10 11
13 14 13 11 13 16 14 13 12 14 11 11 12 12 12 9 8 8 7 10 7 8 5 4 5 3 2 4 3 3 4 4 5 5 6 6 7 7 8 9 9 9 10 10
13 13 14 14 15 16 17 16 14 14 11 13 11 9 11 8 6 6 3 8 6 9 3 4 4 3 4 2 1 1 2 3 4 4 5 6 6 7 8 9 9 10 10 11
13 14 15 17 17 13 16 16 14 13 13 12 12 12 11 7 7 6 6 7 8 7 6 5 5 4 3 2 1 0 0 2 3 4 4 5 6 6 7 8 8 9 9 9
14 11 12 17 13 12 11 12 10 11 10 10 9 8 8 7 7 6 7 8 8 7 6 6 5 5 4 3 3 2 1 2 2 3 4 4 5 6 6 7 8 8 8 8
11 10 11 11 10 10 10 10 9 10 9 8 9 9 8 7 7 8 9 8 7 7 6 6 6 6 5 5 4 3 2 3 3 3 3 4 4 5 6 6 7 7 8 8
Wind_Direction
101 100 118 179 193 197 213 212 215 253 243 162 148 257 281 291 268 286 307 335 345 346 345 349 351 351 350 346 343 343 341 340 342 340 333 332 330 327 323 321 337 321 326 324
190 175 215 232 234 223 222 225 235 244 250 257 244 174 209 221 262 296 315 335 341 345 345 348 348 347 342 344 339 337 338 336 339 336 334 331 324 324 315 324 320 329 336 311
145 160 175 268 234 226 227 221 234 237 244 172 186 202 225 242 277 305 328 335 338 342 345 344 342 339 345 336 333 335 331 338 336 335 332 331 328 324 322 312 308 308 317 327
137 149 227 186 329 218 226 226 219 237 243 194 212 199 237 260 287 338 341 332 339 342 342 339 336 344 336 333 332 336 337 339 334 332 328 326 327 325 320 315 315 316 294 287
157 205 304 191 205 195 195 221 216 217 209 202 181 202 245 237 97 310 328 337 340 339 334 332 342 342 334 331 337 336 345 336 333 331 328 328 325 323 320 321 319 314 313 309
175 212 220 92 144 174 166 250 197 201 199 182 178 221 111 111 27 317 348 335 337 332 330 337 343 336 331 332 332 345 338 333 330 330 329 328 326 326 327 323 318 316 313 309
185 225 268 141 151 151 199 107 149 169 183 186 202 229 39 23 318 5 311 324 341 328 332 341 337 335 327 331 342 337 334 331 329 333 332 329 330 328 326 320 311 303 304 308
208 207 243 151 158 195 111 132 136 156 165 181 208 236 297 287 257 285 318 325 333 327 343 339 343 336 331 334 338 337 333 332 333 335 334 335 332 328 322 318 315 314 315 315
194 201 123 159 167 176 157 148 154 161 160 182 202 228 256 232 222 289 303 328 339 344 336 345 346 343 332 336 338 335 335 333 334 335 341 336 331 327 324 323 320 320 319 318
175 209 173 182 170 187 175 172 161 177 183 186 228 228 228 222 213 270 317 337 343 334 343 343 344 341 338 338 341 337 334 334 335 337 341 336 330 327 320 319 321 321 320 315
210 164 172 196 202 191 182 189 178 183 208 232 227 210 230 225 185 288 310 336 340 340 341 338 342 339 341 342 344 336 333 336 338 343 336 335 329 325 320 320 322 317 316 318
212 186 195 194 199 204 196 197 196 215 203 203 218 217 228 203 168 234 300 326 327 341 337 339 337 342 341 351 343 333 333 340 346 333 336 332 326 325 320 304 308 305 304 301
192 184 186 158 190 201 213 206 201 208 214 205 202 217 196 191 171 129 241 296 329 342 333 334 344 335 347 344 336 332 338 341 337 339 331 332 332 332 331 337 324 320 319 334
175 158 183 175 182 197 208 191 173 205 210 217 215 183 175 185 147 206 210 326 325 323 326 343 335 336 347 343 329 332 336 336 344 337 331 333 334 335 338 339 342 346 345 348
212 191 198 176 189 181 183 187 189 202 202 194 176 178 168 189 189 190 172 201 281 305 319 338 326 339 351 344 326 334 334 346 339 330 332 332 335 338 345 345 346 344 348 354
203 197 197 194 191 193 189 190 196 199 188 182 176 181 174 189 175 173 181 192 257 307 322 322 325 346 348 334 333 333 346 332 315 338 336 338 340 343 347 347 347 350 355 356
200 195 201 205 203 200 197 195 196 201 186 188 188 177 175 177 181 183 186 182 236 268 281 299 332 346 336 335 342 341 332 321 332 339 345 337 342 345 348 350 349 349 354 355
212 207 212 210 205 199 196 193 193 201 188 189 182 175 174 178 186 183 172 186 244 285 288 312 340 336 323 340 347 329 321 333 339 343 350 345 344 345 350 352 352 351 351 354
213 208 201 205 205 196 194 186 187 187 175 172 152 159 148 140 150 142 159 154 201 236 225 244 5 289 324 334 333 313 335 340 338 350 345 343 349 351 353 352 352 356 355 358
215 216 212 203 202 192 187 182 170 172 164 138 131 140 156 165 162 164 176 207 243 279 142 237 286 298 302 306 325 314 337 336 338 343 347 348 350 353 353 356 354 354 356 357
208 207 204 204 189 160 172 161 156 156 165 155 160 171 174 169 167 165 186 224 207 184 195 206 245 281 294 353 315 347 333 335 339 344 347 349 347 353 354 357 354 355 357 355
194 190 184 175 161 161 156 166 169 161 168 160 152 146 150 172 176 192 216 221 162 165 218 212 224 84 334 329 316 331 331 338 338 343 348 351 351 351 353 354 352 353 357 354
187 183 176 172 178 178 180 184 161 167 159 162 164 170 182 186 189 201 220 193 217 170 212 217 110 89 303 269 303 311 325 338 343 347 352 353 355 356 356 358 355 356 357 358
174 175 175 174 179 183 180 178 170 171 174 171 170 170 178 191 201 207 147 134 125 136 205 110 135 166 263 272 288 321 345 1 360 357 4 5 5 3 3 2 359 359 358 2
171 165 160 167 174 169 170 162 164 159 171 171 170 179 198 196 180 192 172 154 144 181 174 146 166 181 214 194 177 136 14 44 23 1 10 11 7 7 6 0 360 357 358 360
171 164 166 171 168 167 159 160 166 166 171 174 174 173 181 196 187 181 149 152 174 192 171 160 183 191 186 182 160 172 143 70 37 30 6 17 6 9 5 359 356 355 358 354
176 158 163 168 167 152 151 167 167 166 176 169 180 171 164 184 175 179 170 168 175 181 163 166 175 194 176 171 174 168 165 119 63 24 24 16 9 7 2 355 354 350 355 350